• In Belarus
  • List of Countries
  • For 7 days
  • Water Temperature
  • Satellite Maps
  • Weather Map
  • Weather Widgets
  • user-avatar
    Login

    Hourly Weather Darwin

    Today, 20 September, Wednesday

    Time Temperature Precipitation Wind Pressure Humidity
    00:00 +28°C° 0.1 mm 1 mps 759 mmHg 76%
    01:00 +28°C° 0.1 mm 1 mps 759 mmHg 76%
    02:00 +28°C° 0.1 mm 1 mps 759 mmHg 77%
    03:00 +28°C° 0 mm 1 mps 759 mmHg 76%
    04:00 +27°C° 0 mm 1 mps 759 mmHg 77%
    05:00 +27°C° 0 mm 1 mps 759 mmHg 78%
    06:00 +27°C° 0 mm 1 mps 759 mmHg 79%
    07:00 +29°C° 0 mm 1 mps 759 mmHg 69%
    08:00 +31°C° 0 mm 1 mps 759 mmHg 59%
    09:00 +34°C° 0 mm 1 mps 759 mmHg 48%
    10:00 +37°C° 0 mm 2 mps 759 mmHg 41%
    11:00 +38°C° 0 mm 2 mps 759 mmHg 33%
    12:00 +40°C° 0 mm 3 mps 758 mmHg 25%
    13:00 +40°C° 0 mm 3 mps 758 mmHg 26%
    14:00 +41°C° 0 mm 4 mps 757 mmHg 26%
    15:00 +41°C° 0 mm 4 mps 756 mmHg 27%
    16:00 +38°C° 0 mm 4 mps 756 mmHg 35%
    17:00 +36°C° 0 mm 4 mps 756 mmHg 43%
    18:00 +34°C° 0 mm 4 mps 756 mmHg 52%
    19:00 +33°C° 0.1 mm 3 mps 757 mmHg 56%
    20:00 +31°C° 0.1 mm 2 mps 758 mmHg 61%
    21:00 +30°C° 0.1 mm 1 mps 758 mmHg 65%
    22:00 +30°C° 0.4 mm 1 mps 758 mmHg 67%
    23:00 +29°C° 0.4 mm 1 mps 759 mmHg 69%

    Tomorrow, 21 September, Thursday

    Time Temperature Precipitation Wind Pressure Humidity
    00:00 +29°C° 0.4 mm 1 mps 759 mmHg 71%
    01:00 +29°C° 0.1 mm 1 mps 758 mmHg 72%
    02:00 +28°C° 0.1 mm 1 mps 758 mmHg 73%
    03:00 +28°C° 0.1 mm 1 mps 758 mmHg 75%
    04:00 +28°C° 0 mm 1 mps 758 mmHg 76%
    05:00 +28°C° 0 mm 1 mps 758 mmHg 77%
    06:00 +27°C° 0 mm 1 mps 758 mmHg 78%
    07:00 +29°C° 0 mm 1 mps 759 mmHg 67%
    08:00 +31°C° 0 mm 2 mps 759 mmHg 56%
    09:00 +35°C° 0 mm 3 mps 759 mmHg 45%
    10:00 +36°C° 0 mm 3 mps 759 mmHg 38%
    11:00 +38°C° 0 mm 4 mps 758 mmHg 32%
    12:00 +41°C° 0 mm 5 mps 758 mmHg 25%
    13:00 +41°C° 0 mm 5 mps 757 mmHg 26%
    14:00 +41°C° 0 mm 5 mps 756 mmHg 26%
    15:00 +41°C° 0 mm 5 mps 755 mmHg 27%
    16:00 +39°C° 0 mm 5 mps 756 mmHg 34%
    17:00 +36°C° 0 mm 5 mps 756 mmHg 41%
    18:00 +34°C° 0 mm 4 mps 756 mmHg 47%
    19:00 +34°C° 0 mm 4 mps 757 mmHg 53%
    20:00 +33°C° 0 mm 3 mps 758 mmHg 58%
    21:00 +31°C° 0 mm 3 mps 758 mmHg 63%
    22:00 +30°C° 0.3 mm 3 mps 759 mmHg 67%
    23:00 +30°C° 0.3 mm 2 mps 759 mmHg 70%

    Day after tomorrow, 22 September, Friday

    Time Temperature Precipitation Wind Pressure Humidity
    00:00 +29°C° 0.3 mm 2 mps 759 mmHg 73%
    01:00 +29°C° 0.4 mm 2 mps 759 mmHg 75%
    02:00 +29°C° 0.4 mm 2 mps 758 mmHg 76%
    03:00 +28°C° 0.4 mm 1 mps 758 mmHg 77%
    04:00 +28°C° 0 mm 1 mps 758 mmHg 77%
    05:00 +28°C° 0 mm 1 mps 758 mmHg 77%
    06:00 +26°C° 0 mm 0 mps 759 mmHg 76%
    07:00 +30°C° 0 mm 1 mps 759 mmHg 70%
    08:00 +31°C° 0 mm 1 mps 759 mmHg 63%
    09:00 +32°C° 0 mm 2 mps 760 mmHg 57%
    10:00 +35°C° 0 mm 2 mps 759 mmHg 47%
    11:00 +38°C° 0 mm 3 mps 759 mmHg 37%
    12:00 +41°C° 0 mm 4 mps 759 mmHg 26%
    13:00 +41°C° 0 mm 4 mps 758 mmHg 26%
    14:00 +41°C° 0 mm 4 mps 757 mmHg 26%
    15:00 +41°C° 0 mm 5 mps 756 mmHg 25%
    16:00 +38°C° 0 mm 4 mps 756 mmHg 33%
    17:00 +36°C° 0 mm 4 mps 756 mmHg 42%
    18:00 +34°C° 0 mm 4 mps 757 mmHg 50%
    19:00 +33°C° 0 mm 3 mps 757 mmHg 56%
    20:00 +31°C° 0 mm 3 mps 758 mmHg 61%
    21:00 +30°C° 0 mm 3 mps 759 mmHg 67%
    22:00 +30°C° 0 mm 3 mps 759 mmHg 70%
    23:00 +30°C° 0 mm 2 mps 760 mmHg 73%

    23 September, Saturday

    Time Temperature Precipitation Wind Pressure Humidity
    00:00 +29°C° 0 mm 2 mps 760 mmHg 76%
    01:00 +29°C° 0.2 mm 2 mps 759 mmHg 77%
    02:00 +28°C° 0.2 mm 2 mps 759 mmHg 79%
    03:00 +28°C° 0.2 mm 2 mps 759 mmHg 80%
    04:00 +28°C° 0 mm 1 mps 759 mmHg 81%
    05:00 +28°C° 0 mm 1 mps 759 mmHg 82%
    06:00 +27°C° 0 mm 1 mps 759 mmHg 83%
    07:00 +30°C° 0 mm 1 mps 760 mmHg 72%
    08:00 +32°C° 0 mm 1 mps 760 mmHg 62%
    09:00 +34°C° 0 mm 1 mps 760 mmHg 52%
    10:00 +37°C° 0 mm 2 mps 760 mmHg 46%
    11:00 +38°C° 0 mm 2 mps 759 mmHg 40%
    12:00 +40°C° 0 mm 3 mps 759 mmHg 34%
    13:00 +39°C° 0 mm 3 mps 758 mmHg 36%
    14:00 +38°C° 0 mm 4 mps 757 mmHg 38%
    15:00 +37°C° 0 mm 5 mps 756 mmHg 39%
    16:00 +36°C° 0 mm 4 mps 757 mmHg 44%
    17:00 +35°C° 0 mm 4 mps 757 mmHg 48%
    18:00 +34°C° 0 mm 3 mps 757 mmHg 53%
    19:00 +33°C° 0 mm 3 mps 757 mmHg 58%
    20:00 +31°C° 0 mm 3 mps 758 mmHg 64%
    21:00 +30°C° 0 mm 3 mps 759 mmHg 70%
    22:00 +30°C° 0 mm 3 mps 759 mmHg 73%
    23:00 +29°C° 0 mm 3 mps 759 mmHg 77%

    24 September, Sunday

    Time Temperature Precipitation Wind Pressure Humidity
    00:00 +29°C° 0 mm 3 mps 759 mmHg 80%
    01:00 +29°C° 0 mm 2 mps 758 mmHg 82%
    02:00 +28°C° 0 mm 2 mps 758 mmHg 83%
    03:00 +28°C° 0 mm 1 mps 758 mmHg 84%
    04:00 +28°C° 0.1 mm 1 mps 758 mmHg 85%
    05:00 +28°C° 0.1 mm 1 mps 759 mmHg 86%
    06:00 +27°C° 0.1 mm 1 mps 759 mmHg 87%
    07:00 +29°C° 0.3 mm 1 mps 759 mmHg 77%
    08:00 +31°C° 0.3 mm 1 mps 759 mmHg 66%
    09:00 +34°C° 0.3 mm 1 mps 760 mmHg 55%
    10:00 +36°C° 0 mm 2 mps 759 mmHg 50%
    11:00 +37°C° 0 mm 2 mps 759 mmHg 45%
    12:00 +38°C° 0 mm 3 mps 758 mmHg 40%
    13:00 +38°C° 0.1 mm 3 mps 757 mmHg 40%
    14:00 +37°C° 0.1 mm 4 mps 757 mmHg 40%
    15:00 +37°C° 0.1 mm 4 mps 756 mmHg 40%
    16:00 +36°C° 0 mm 4 mps 756 mmHg 44%
    17:00 +35°C° 0 mm 4 mps 757 mmHg 48%
    18:00 +34°C° 0 mm 3 mps 757 mmHg 51%
    19:00 +33°C° 0.1 mm 3 mps 758 mmHg 58%
    20:00 +31°C° 0.1 mm 3 mps 758 mmHg 65%
    21:00 +30°C° 0.1 mm 3 mps 758 mmHg 72%
    22:00 +30°C° 0 mm 3 mps 758 mmHg 74%
    23:00 +29°C° 0 mm 3 mps 758 mmHg 76%

    25 September, Monday

    Time Temperature Precipitation Wind Pressure Humidity
    00:00 +29°C° 0 mm 3 mps 758 mmHg 78%
    01:00 +29°C° 0 mm 2 mps 758 mmHg 79%
    02:00 +28°C° 0 mm 2 mps 758 mmHg 80%
    03:00 +28°C° 0 mm 1 mps 757 mmHg 82%
    04:00 +28°C° 0 mm 1 mps 758 mmHg 83%
    05:00 +28°C° 0 mm 1 mps 758 mmHg 84%
    06:00 +25°C° 0 mm 0 mps 759 mmHg 85%
    07:00 +28°C° 0 mm 0 mps 759 mmHg 75%
    08:00 +30°C° 0 mm 0 mps 759 mmHg 64%
    09:00 +32°C° 0 mm 0 mps 759 mmHg 53%
    10:00 +35°C° 0 mm 1 mps 759 mmHg 49%
    11:00 +38°C° 0 mm 2 mps 758 mmHg 45%
    12:00 +39°C° 0 mm 3 mps 758 mmHg 41%
    13:00 +38°C° 0.1 mm 3 mps 757 mmHg 42%
    14:00 +38°C° 0.1 mm 3 mps 756 mmHg 44%
    15:00 +37°C° 0.1 mm 3 mps 756 mmHg 46%
    16:00 +36°C° 0 mm 3 mps 756 mmHg 48%
    17:00 +35°C° 0 mm 3 mps 756 mmHg 51%
    18:00 +34°C° 0 mm 3 mps 757 mmHg 54%
    19:00 +33°C° 0 mm 3 mps 757 mmHg 59%
    20:00 +31°C° 0 mm 3 mps 758 mmHg 65%
    21:00 +30°C° 0 mm 3 mps 758 mmHg 70%
    22:00 +30°C° 0 mm 3 mps 758 mmHg 73%
    23:00 +29°C° 0 mm 3 mps 758 mmHg 75%
    Show more